Previsão horária em Julianka

Hoje, 14 Junho, Segunda-feira

Tempo Temperatura Precipitação Vento Pressão Humidade
00:00 +10°C° 0 mm 4 m/s 744 mmHg 86%
01:00 +8°C° 0 mm 4 m/s 744 mmHg 87%
02:00 +8°C° 0 mm 4 m/s 744 mmHg 89%
03:00 +8°C° 0 mm 3 m/s 744 mmHg 92%
04:00 +8°C° 0 mm 3 m/s 744 mmHg 95%
05:00 +10°C° 0 mm 3 m/s 744 mmHg 88%
06:00 +11°C° 0 mm 3 m/s 744 mmHg 80%
07:00 +13°C° 0 mm 4 m/s 744 mmHg 73%
08:00 +14°C° 0 mm 4 m/s 744 mmHg 67%
09:00 +17°C° 0 mm 4 m/s 744 mmHg 62%
10:00 +18°C° 0 mm 4 m/s 744 mmHg 57%
11:00 +19°C° 0 mm 4 m/s 744 mmHg 54%
12:00 +20°C° 0 mm 4 m/s 744 mmHg 51%
13:00 +20°C° 0 mm 4 m/s 744 mmHg 49%
14:00 +20°C° 0 mm 3 m/s 743 mmHg 49%
15:00 +21°C° 0 mm 3 m/s 743 mmHg 48%
16:00 +21°C° 0 mm 3 m/s 743 mmHg 48%
17:00 +20°C° 0 mm 2 m/s 743 mmHg 55%
18:00 +18°C° 0 mm 2 m/s 742 mmHg 62%
19:00 +17°C° 0 mm 2 m/s 742 mmHg 68%
20:00 +16°C° 0 mm 1 m/s 742 mmHg 71%
21:00 +15°C° 0 mm 1 m/s 742 mmHg 73%
22:00 +13°C° 0 mm 0 m/s 742 mmHg 75%
23:00 +12°C° 0 mm 0 m/s 742 mmHg 76%

Amanhã, 15 Junho, Terça-feira

Tempo Temperatura Precipitação Vento Pressão Humidade
00:00 +12°C° 0 mm 0 m/s 742 mmHg 77%
01:00 +12°C° 0 mm 0 m/s 742 mmHg 78%
02:00 +12°C° 0 mm 1 m/s 742 mmHg 79%
03:00 +12°C° 0 mm 1 m/s 742 mmHg 81%
04:00 +12°C° 0 mm 1 m/s 742 mmHg 82%
05:00 +13°C° 0 mm 1 m/s 742 mmHg 76%
06:00 +15°C° 0 mm 2 m/s 742 mmHg 71%
07:00 +17°C° 0 mm 2 m/s 742 mmHg 66%
08:00 +19°C° 0 mm 1 m/s 742 mmHg 61%
09:00 +21°C° 0 mm 1 m/s 742 mmHg 55%
10:00 +22°C° 0 mm 1 m/s 742 mmHg 50%
11:00 +23°C° 0 mm 1 m/s 742 mmHg 48%
12:00 +24°C° 0 mm 1 m/s 742 mmHg 46%
13:00 +24°C° 0 mm 1 m/s 741 mmHg 44%
14:00 +24°C° 0 mm 1 m/s 741 mmHg 45%
15:00 +24°C° 0 mm 1 m/s 741 mmHg 46%
16:00 +24°C° 0 mm 1 m/s 741 mmHg 47%
17:00 +23°C° 0 mm 1 m/s 741 mmHg 54%
18:00 +22°C° 0 mm 1 m/s 741 mmHg 61%
19:00 +21°C° 0 mm 1 m/s 741 mmHg 68%
20:00 +20°C° 0 mm 1 m/s 741 mmHg 70%
21:00 +19°C° 0 mm 1 m/s 741 mmHg 71%
22:00 +17°C° 0 mm 0 m/s 741 mmHg 72%
23:00 +16°C° 0 mm 0 m/s 741 mmHg 75%

Depois de amanhã, 16 Junho, Quarta-feira

Tempo Temperatura Precipitação Vento Pressão Humidade
00:00 +16°C° 0 mm 0 m/s 741 mmHg 77%
01:00 +15°C° 0 mm 0 m/s 741 mmHg 80%
02:00 +16°C° 0 mm 1 m/s 741 mmHg 84%
03:00 +15°C° 0 mm 1 m/s 741 mmHg 87%
04:00 +15°C° 0 mm 1 m/s 741 mmHg 90%
05:00 +16°C° 0 mm 1 m/s 741 mmHg 87%
06:00 +18°C° 0 mm 2 m/s 742 mmHg 85%
07:00 +19°C° 0 mm 2 m/s 742 mmHg 82%
08:00 +20°C° 0.1 mm 2 m/s 742 mmHg 79%
09:00 +20°C° 0.1 mm 2 m/s 742 mmHg 76%
10:00 +21°C° 0.1 mm 2 m/s 742 mmHg 73%
11:00 +22°C° 0.1 mm 3 m/s 742 mmHg 68%
12:00 +24°C° 0.1 mm 3 m/s 742 mmHg 64%
13:00 +25°C° 0.1 mm 3 m/s 742 mmHg 60%
14:00 +25°C° 0 mm 3 m/s 742 mmHg 60%
15:00 +25°C° 0 mm 3 m/s 742 mmHg 60%
16:00 +25°C° 0 mm 3 m/s 742 mmHg 61%
17:00 +24°C° 0 mm 3 m/s 742 mmHg 66%
18:00 +22°C° 0 mm 3 m/s 742 mmHg 72%
19:00 +21°C° 0 mm 3 m/s 742 mmHg 77%
20:00 +19°C° 0 mm 3 m/s 742 mmHg 82%
21:00 +18°C° 0 mm 2 m/s 742 mmHg 86%
22:00 +17°C° 0 mm 2 m/s 742 mmHg 91%
23:00 +16°C° 0 mm 3 m/s 742 mmHg 92%

17 Junho, Quinta-feira

Tempo Temperatura Precipitação Vento Pressão Humidade
00:00 +16°C° 0 mm 3 m/s 742 mmHg 93%
01:00 +14°C° 0 mm 3 m/s 743 mmHg 94%
02:00 +14°C° 0 mm 3 m/s 742 mmHg 94%
03:00 +14°C° 0 mm 3 m/s 742 mmHg 93%
04:00 +14°C° 0 mm 3 m/s 742 mmHg 93%
05:00 +16°C° 0 mm 3 m/s 743 mmHg 88%
06:00 +18°C° 0 mm 4 m/s 743 mmHg 82%
07:00 +20°C° 0 mm 5 m/s 743 mmHg 77%
08:00 +21°C° 0 mm 5 m/s 743 mmHg 72%
09:00 +23°C° 0 mm 5 m/s 743 mmHg 67%
10:00 +25°C° 0 mm 5 m/s 743 mmHg 62%
11:00 +26°C° 0 mm 5 m/s 743 mmHg 59%
12:00 +27°C° 0 mm 5 m/s 743 mmHg 57%
13:00 +27°C° 0 mm 4 m/s 743 mmHg 54%
14:00 +27°C° 0 mm 5 m/s 743 mmHg 55%
15:00 +27°C° 0 mm 5 m/s 743 mmHg 55%
16:00 +27°C° 0 mm 5 m/s 743 mmHg 56%
17:00 +26°C° 0 mm 4 m/s 742 mmHg 62%
18:00 +23°C° 0 mm 4 m/s 742 mmHg 68%
19:00 +22°C° 0 mm 3 m/s 742 mmHg 74%
20:00 +21°C° 0 mm 4 m/s 742 mmHg 78%
21:00 +20°C° 0 mm 4 m/s 742 mmHg 81%
22:00 +19°C° 0 mm 4 m/s 742 mmHg 84%
23:00 +19°C° 0 mm 4 m/s 742 mmHg 85%

18 Junho, Sexta-feira

Tempo Temperatura Precipitação Vento Pressão Humidade
00:00 +18°C° 0 mm 4 m/s 742 mmHg 85%
01:00 +18°C° 0 mm 4 m/s 742 mmHg 86%
02:00 +18°C° 0 mm 4 m/s 742 mmHg 88%
03:00 +18°C° 0 mm 4 m/s 742 mmHg 90%
04:00 +17°C° 0 mm 4 m/s 742 mmHg 91%
05:00 +19°C° 0 mm 4 m/s 742 mmHg 86%
06:00 +21°C° 0 mm 5 m/s 742 mmHg 81%
07:00 +22°C° 0 mm 5 m/s 742 mmHg 75%
08:00 +24°C° 0 mm 6 m/s 742 mmHg 70%
09:00 +26°C° 0 mm 6 m/s 742 mmHg 65%
10:00 +27°C° 0 mm 6 m/s 742 mmHg 61%
11:00 +28°C° 0 mm 6 m/s 742 mmHg 59%
12:00 +29°C° 0 mm 6 m/s 742 mmHg 57%
13:00 +30°C° 0 mm 6 m/s 741 mmHg 55%
14:00 +30°C° 0 mm 6 m/s 741 mmHg 57%
15:00 +29°C° 0 mm 6 m/s 741 mmHg 58%
16:00 +29°C° 0 mm 5 m/s 741 mmHg 59%
17:00 +28°C° 0 mm 5 m/s 741 mmHg 64%
18:00 +27°C° 0 mm 5 m/s 741 mmHg 70%
19:00 +26°C° 0 mm 4 m/s 741 mmHg 75%
20:00 +25°C° 0 mm 5 m/s 741 mmHg 78%
21:00 +23°C° 0 mm 5 m/s 741 mmHg 80%
22:00 +22°C° 0 mm 5 m/s 742 mmHg 82%
23:00 +21°C° 0 mm 5 m/s 742 mmHg 84%

19 Junho, Sábado

Tempo Temperatura Precipitação Vento Pressão Humidade
00:00 +20°C° 0 mm 4 m/s 742 mmHg 86%
01:00 +20°C° 0 mm 4 m/s 742 mmHg 88%
02:00 +19°C° 0 mm 3 m/s 742 mmHg 90%
03:00 +19°C° 0 mm 3 m/s 742 mmHg 92%
04:00 +18°C° 0 mm 3 m/s 742 mmHg 94%
05:00 +20°C° 0 mm 3 m/s 742 mmHg 87%
06:00 +21°C° 0 mm 3 m/s 742 mmHg 81%
07:00 +24°C° 0 mm 3 m/s 742 mmHg 75%
08:00 +25°C° 0 mm 4 m/s 742 mmHg 70%
09:00 +27°C° 0 mm 4 m/s 742 mmHg 65%
10:00 +29°C° 0 mm 4 m/s 742 mmHg 60%
11:00 +29°C° 0 mm 4 m/s 742 mmHg 57%
12:00 +30°C° 0 mm 4 m/s 742 mmHg 54%
13:00 +30°C° 0 mm 5 m/s 742 mmHg 52%
14:00 +30°C° 0 mm 5 m/s 742 mmHg 52%
15:00 +30°C° 0 mm 5 m/s 742 mmHg 53%
16:00 +29°C° 0 mm 5 m/s 742 mmHg 54%
17:00 +28°C° 0 mm 5 m/s 742 mmHg 61%
18:00 +26°C° 0 mm 4 m/s 742 mmHg 68%
19:00 +25°C° 0 mm 4 m/s 742 mmHg 75%
20:00 +22°C° 0 mm 4 m/s 742 mmHg 81%
21:00 +21°C° 0 mm 3 m/s 742 mmHg 86%
22:00 +20°C° 0 mm 3 m/s 742 mmHg 92%
23:00 +19°C° 0 mm 3 m/s 742 mmHg 93%
Mostrar mais

Necessitamos do seu Consentimento

A Meteoprog e os seus Fornecedores de Serviços podem armazenar e aceder a dados pessoais como cookies, identificadores do dispositivo ou outras tecnologias semelhantes existentes no seu dispositivo e processar estes dados para personalizar conteúdos e anúncios, assim como funcionalidades nas redes sociais e análise de tráfego.

  • Armazenar e/ou aceder a informações no seu dispositivo

    Os cookies, identificadores do dispositivo ou outras informações podem ser armazenados ou acedidos no seu dispositivo, para os fins acima indicados.

  • Anúncios e conteúdos personalizados, medição de anúncios e conteúdos, dados sobre o público-alvo e desenvolvimento de produtos

    Os anúncios e os conteúdos podem ser personalizados com base num perfil. Podem ser adicionados dados adicionais para uma maior personalização dos anúncios e dos conteúdos. A eficácia dos anúncios e dos conteúdos pode ser medida. Podem ser obtidas informações sobre o público que visualizou os anúncios e os conteúdos. Estes dados podem ser usados para desenvolver ou melhorar sistemas, softwares ou a experiência do utilizador.

Ao clicar em "Eu concordo”, permitirá o uso de cookies, identificadores do dispositivo e web beacons mencionados ou outras tecnologias semelhantes. As configurações do navegador do seu dispositivo podem ser alteradas.

Para certos fins, podem ser invocados interesses legítimos ao invés de consentimento. Pode ler mais informação sobre este assunto na nossa Política de Privacidade e Cookies.